GW5679 Weather Reports


Display with metric or nautical units.
time (UTC)temp
F
wind
direction
speed
MPH
gust
MPH
rain 1hr
in
rain 24hr
in
rain mn
in
humidity
%
barometer
mb
20260906113818 82 149 0.0 0.0 0.00 0.00 0.00 85 1011.3
20260906113317 82 149 0.0 0.0 0.00 0.00 0.00 85 1011.4
20260906112812 82 185 2.0 2.0 0.00 0.00 0.00 85 1011.4
20260906112308 82 185 2.0 2.0 0.00 0.00 0.00 85 1011.5
20260906111808 82 185 2.0 2.0 0.00 0.00 0.00 85 1011.4
20260906111307 82 185 2.0 2.0 0.00 0.00 0.00 85 1011.4
20260906110803 82 185 2.0 2.0 0.00 0.00 0.00 85 1011.3
20260906110258 82 185 2.0 2.0 0.00 0.00 0.00 85 1011.4
20260906105757 82 180 1.0 1.0 0.00 0.00 0.00 84 1011.4
20260906105253 82 180 1.0 1.0 0.00 0.00 0.00 84 1011.4
20260906104749 82 191 2.0 2.0 0.00 0.00 0.00 84 1011.4
20260906104247 82 172 1.0 2.0 0.00 0.00 0.00 85 1011.2
20260906103745 82 172 1.0 2.0 0.00 0.00 0.00 85 1011.1
20260906103239 82 145 0.0 0.0 0.00 0.00 0.00 85 1011.2
20260906102735 82 178 1.0 1.0 0.00 0.00 0.00 85 1010.9
20260906102234 82 187 0.0 0.0 0.00 0.00 0.00 85 1011.2
20260906101729 82 187 0.0 0.0 0.00 0.00 0.00 85 1010.9
20260906101224 82 148 0.0 0.0 0.00 0.00 0.00 84 1011.1
20260906100720 82 154 0.0 0.0 0.00 0.00 0.00 84 1011.0
20260906100220 82 154 0.0 0.0 0.00 0.00 0.00 84 1010.9
20260906095720 82 153 0.0 0.0 0.00 0.00 0.00 84 1011.0
20260906095216 82 152 0.0 0.0 0.00 0.00 0.00 84 1011.0
20260906094714 82 150 0.0 0.0 0.00 0.00 0.00 84 1011.0
20260906094210 82 157 0.0 0.0 0.00 0.00 0.00 84 1010.9
20260906093706 83 147 0.0 0.0 0.00 0.00 0.00 84 1011.0
20260906093201 83 149 0.0 0.0 0.00 0.00 0.00 84 1011.0
20260906092657 83 160 2.0 2.0 0.00 0.00 0.00 84 1010.9
20260906092156 82 192 1.0 1.0 0.00 0.00 0.00 84 1010.8
20260906091653 82 175 2.0 2.0 0.00 0.00 0.00 84 1010.8
20260906091149 83 177 0.0 0.0 0.00 0.00 0.00 83 1010.7
20260906090645 83 177 0.0 0.0 0.00 0.00 0.00 83 1010.7
20260906090144 83 190 0.0 0.0 0.00 0.00 0.00 83 1010.6
20260906085642 83 190 0.0 0.0 0.00 0.00 0.00 83 1010.8
20260906085137 83 190 0.0 0.0 0.00 0.00 0.00 83 1010.6
20260906084631 83 184 0.0 1.0 0.00 0.00 0.00 83 1010.7
20260906084130 83 184 0.0 1.0 0.00 0.00 0.00 83 1010.7
20260906083627 83 184 0.0 1.0 0.00 0.00 0.00 83 1010.7
20260906083126 83 184 0.0 1.0 0.00 0.00 0.00 83 1010.7
20260906082622 83 184 0.0 1.0 0.00 0.00 0.00 83 1010.8
20260906082117 83 184 0.0 1.0 0.00 0.00 0.00 83 1010.8
20260906081613 83 176 0.0 0.0 0.00 0.00 0.00 83 1010.7
20260906081108 83 176 0.0 0.0 0.00 0.00 0.00 83 1010.7
20260906080606 83 189 2.0 2.0 0.00 0.00 0.00 82 1010.9
20260906075600 83 189 2.0 2.0 0.00 0.00 0.00 82 1011.0
20260906075055 83 189 2.0 2.0 0.00 0.00 0.00 82 1010.8
20260906074551 83 189 2.0 2.0 0.00 0.00 0.00 82 1011.0
20260906074049 83 189 2.0 2.0 0.00 0.00 0.00 82 1011.0
20260906073544 83 216 2.0 2.0 0.00 0.00 0.00 83 1011.0
20260906073040 83 176 1.0 2.0 0.00 0.00 0.00 82 1011.3
20260906072534 83 178 1.0 2.0 0.00 0.00 0.00 82 1011.1
20260906072031 83 178 1.0 2.0 0.00 0.00 0.00 82 1011.2
20260906071527 83 183 0.0 1.0 0.00 0.00 0.00 82 1011.1
20260906071022 83 183 0.0 1.0 0.00 0.00 0.00 82 1011.0
20260906070518 83 195 3.0 3.0 0.00 0.00 0.00 82 1011.1
20260906070014 83 224 3.0 3.0 0.00 0.00 0.00 82 1011.1
20260906065513 83 194 1.0 1.0 0.00 0.00 0.00 81 1011.2
20260906065009 83 198 1.0 3.0 0.00 0.00 0.00 81 1011.3
20260906064504 83 202 3.0 6.0 0.00 0.00 0.00 81 1011.3
20260906063959 83 185 2.0 3.0 0.00 0.00 0.00 81 1011.4
20260906063455 83 188 2.0 3.0 0.00 0.00 0.00 81 1011.2
20260906062955 83 203 3.0 3.0 0.00 0.00 0.00 80 1011.4
20260906062450 83 168 4.0 4.0 0.00 0.00 0.00 80 1011.2
20260906061945 83 168 4.0 4.0 0.00 0.00 0.00 80 1011.3
20260906061441 83 141 3.0 3.0 0.00 0.00 0.00 80 1011.1
20260906060935 83 204 3.0 3.0 0.00 0.00 0.00 80 1011.2
20260906060432 83 211 4.0 4.0 0.00 0.00 0.00 80 1011.1
20260906055929 84 190 2.0 2.0 0.00 0.00 0.00 79 1011.2
20260906055424 84 190 2.0 2.0 0.00 0.00 0.00 79 1011.3
20260906054919 84 193 2.0 3.0 0.00 0.00 0.00 79 1011.4
20260906054414 84 178 1.0 1.0 0.00 0.00 0.00 79 1011.2
20260906053910 84 192 3.0 3.0 0.00 0.00 0.00 79 1011.2
20260906053406 84 213 3.0 3.0 0.00 0.00 0.00 79 1011.2
20260906052901 84 213 3.0 3.0 0.00 0.00 0.00 79 1011.2
20260906052358 84 181 3.0 4.0 0.00 0.00 0.00 79 1011.3
20260906051854 84 183 2.0 2.0 0.00 0.00 0.00 79 1011.3
20260906051354 84 181 3.0 4.0 0.00 0.00 0.00 80 1011.3
20260906050850 84 209 3.0 6.0 0.00 0.00 0.00 80 1011.4
20260906050344 84 210 6.0 8.0 0.00 0.00 0.00 80 1011.2
20260906045843 84 200 3.0 3.0 0.00 0.00 0.00 81 1011.3
20260906045338 84 194 4.0 4.0 0.00 0.00 0.00 81 1011.5
20260906044834 84 194 4.0 4.0 0.00 0.00 0.00 81 1011.4
20260906044328 84 196 6.0 7.0 0.00 0.00 0.00 80 1011.4
20260906043826 84 173 3.0 3.0 0.00 0.00 0.00 80 1011.4
20260906043320 84 172 4.0 4.0 0.00 0.00 0.00 80 1011.4
20260906042820 84 190 4.0 4.0 0.00 0.00 0.00 79 1011.4
20260906042319 84 169 2.0 3.0 0.00 0.00 0.00 79 1011.3
20260906041815 84 219 4.0 6.0 0.00 0.00 0.00 79 1011.3
20260906041310 84 159 2.0 4.0 0.00 0.00 0.00 79 1011.4
20260906040805 84 159 2.0 4.0 0.00 0.00 0.00 79 1011.6
20260906040300 84 162 3.0 3.0 0.00 0.00 0.00 78 1011.5
20260906035755 84 161 3.0 6.0 0.00 0.00 0.00 78 1011.3
20260906035251 85 155 4.0 6.0 0.00 0.00 0.00 78 1011.5
20260906034752 85 150 3.0 4.0 0.00 0.00 0.00 78 1011.4
20260906034252 85 150 4.0 6.0 0.00 0.00 0.00 78 1011.7
20260906033748 85 135 3.0 3.0 0.00 0.00 0.00 78 1011.5
20260906033247 85 149 2.0 2.0 0.00 0.00 0.00 78 1011.5
20260906032744 85 162 4.0 4.0 0.00 0.00 0.00 78 1011.6
20260906032244 85 162 4.0 4.0 0.00 0.00 0.00 78 1011.4
20260906031739 85 169 3.0 4.0 0.00 0.00 0.00 78 1011.5
20260906031235 85 136 3.0 6.0 0.00 0.00 0.00 78 1011.6
20260906030734 85 150 5.0 6.0 0.00 0.00 0.00 77 1011.3
20260906030230 85 143 3.0 4.0 0.00 0.00 0.00 77 1011.4
20260906025729 85 128 2.0 2.0 0.00 0.00 0.00 77 1011.1
20260906025229 85 172 4.0 4.0 0.00 0.00 0.00 77 1011.1
20260906024728 85 136 5.0 6.0 0.00 0.00 0.00 76 1011.1
20260906024227 85 121 1.0 1.0 0.00 0.00 0.00 76 1011.0
20260906023723 86 158 4.0 6.0 0.00 0.00 0.00 76 1011.0
20260906023218 86 119 4.0 6.0 0.00 0.00 0.00 75 1010.8
20260906022714 86 182 5.0 6.0 0.00 0.00 0.00 75 1010.8
20260906022209 86 144 1.0 2.0 0.00 0.00 0.00 75 1010.8
20260906021705 86 158 5.0 8.0 0.00 0.00 0.00 75 1010.7
20260906021204 86 137 2.0 3.0 0.00 0.00 0.00 75 1010.5
20260906020659 86 118 2.0 3.0 0.00 0.00 0.00 75 1010.5
20260906020154 86 150 3.0 3.0 0.00 0.00 0.00 75 1010.5
20260906015654 86 136 6.0 8.0 0.00 0.00 0.00 75 1010.5
20260906015153 86 146 4.0 6.0 0.00 0.00 0.00 74 1010.4
20260906014652 86 157 5.0 9.0 0.00 0.00 0.00 74 1010.6
20260906014148 86 144 3.0 3.0 0.00 0.00 0.00 73 1010.4
20260906013644 86 166 5.0 6.0 0.00 0.00 0.00 73 1010.4
20260906013139 86 138 6.0 7.0 0.00 0.00 0.00 73 1010.4
20260906012640 87 151 6.0 8.0 0.00 0.00 0.00 72 1010.4
20260906012139 87 107 3.0 4.0 0.00 0.00 0.00 72 1010.2
20260906011635 87 151 3.0 3.0 0.00 0.00 0.00 72 1010.2
20260906011130 87 152 5.0 6.0 0.00 0.00 0.00 71 1010.2
20260906010626 87 109 3.0 4.0 0.00 0.00 0.00 71 1010.1
20260906010122 87 153 3.0 3.0 0.00 0.00 0.00 71 1010.6
20260906005621 88 130 4.0 6.0 0.00 0.00 0.00 71 1010.1
20260906005120 88 139 3.0 3.0 0.00 0.00 0.00 71 1010.3
20260906004620 88 172 1.0 6.0 0.00 0.00 0.00 70 1010.2
20260906004114 88 149 2.0 3.0 0.00 0.00 0.00 70 1010.2
20260906003610 88 120 4.0 6.0 0.00 0.00 0.00 69 1010.0
20260906003107 89 152 4.0 6.0 0.00 0.00 0.00 68 1010.0
20260906002606 89 103 4.0 4.0 0.00 0.00 0.00 66 1010.2
20260906002102 90 104 2.0 3.0 0.00 0.00 0.00 62 1010.2
20260906001557 89 128 2.0 3.0 0.00 0.00 0.00 61 1010.3
20260906001056 89 121 2.0 3.0 0.00 0.00 0.00 61 1010.2
20260906000553 89 155 3.0 6.0 0.00 0.00 0.00 63 1010.4
20260906000048 89 171 1.0 4.0 0.00 0.00 0.00 63 1010.1
20260905235547 90 114 2.0 4.0 0.00 0.00 0.00 63 1010.4
20260905235042 90 122 2.0 3.0 0.00 0.00 0.00 63 1010.3
20260905234537 90 281 2.0 3.0 0.00 0.00 0.00 63 1010.6
20260905234032 90 110 5.0 7.0 0.00 0.00 0.00 62 1010.6
20260905233532 90 160 2.0 3.0 0.00 0.00 0.00 62 1010.7
20260905233032 90 163 2.0 8.0 0.00 0.00 0.00 63 1010.6
20260905232528 90 134 4.0 6.0 0.00 0.00 0.00 63 1010.4
20260905232023 90 125 4.0 6.0 0.00 0.00 0.00 63 1010.6
20260905231518 90 130 1.0 3.0 0.00 0.00 0.00 63 1010.5
20260905231015 90 167 1.0 1.0 0.00 0.00 0.00 64 1010.5
20260905230514 90 102 2.0 3.0 0.00 0.00 0.00 64 1010.6
20260905230012 89 149 1.0 2.0 0.00 0.00 0.00 66 1010.3
20260905225507 88 198 2.0 3.0 0.00 0.00 0.00 69 1010.3
20260905225002 88 194 2.0 2.0 0.00 0.00 0.00 71 1010.2
20260905224457 87 188 1.0 2.0 0.00 0.00 0.00 73 1010.3
20260905223956 87 217 2.0 3.0 0.00 0.00 0.00 74 1010.2
20260905223454 86 196 1.0 3.0 0.00 0.00 0.00 75 1010.2
20260905222950 86 216 4.0 4.0 0.00 0.00 0.00 75 1010.2
20260905222449 86 182 1.0 2.0 0.00 0.00 0.00 75 1010.3
20260905221945 86 226 1.0 2.0 0.00 0.00 0.00 75 1010.3
20260905221441 86 253 2.0 4.0 0.00 0.00 0.00 75 1010.3
20260905220937 86 337 2.0 3.0 0.00 0.00 0.00 75 1010.2
20260905220433 88 293 3.0 9.0 0.00 0.00 0.00 71 1010.3
20260905215932 89 210 4.0 7.0 0.00 0.00 0.00 67 1010.1
20260905215428 89 170 2.0 3.0 0.00 0.00 0.00 65 1010.1
20260905214924 89 215 2.0 3.0 0.00 0.00 0.00 65 1010.4
20260905214420 89 291 6.0 10.0 0.00 0.00 0.00 65 1010.2
20260905213919 89 290 9.0 10.0 0.00 0.00 0.00 65 1010.3
20260905213416 89 252 4.0 9.0 0.00 0.00 0.00 65 1010.4
20260905212911 91 263 6.0 9.0 0.00 0.00 0.00 64 1010.3
20260905212406 92 207 5.0 7.0 0.00 0.00 0.00 61 1010.3
20260905211905 93 166 1.0 4.0 0.00 0.00 0.00 58 1010.5
20260905211401 95 186 3.0 6.0 0.00 0.00 0.00 54 1010.5
20260905210857 95 148 0.0 0.0 0.00 0.00 0.00 53 1010.5
20260905210357 95 104 1.0 8.0 0.00 0.00 0.00 53 1010.6
20260905205856 95 110 2.0 6.0 0.00 0.00 0.00 53 1010.3
20260905205351 95 165 3.0 6.0 0.00 0.00 0.00 53 1010.3
20260905204850 96 137 3.0 10.0 0.00 0.00 0.00 52 1010.5
20260905204346 97 117 2.0 6.0 0.00 0.00 0.00 51 1010.2
20260905203844 96 96 4.0 6.0 0.00 0.00 0.00 52 1010.6
20260905203340 96 193 5.0 9.0 0.00 0.00 0.00 53 1010.5
20260905202831 97 151 3.0 6.0 0.00 0.00 0.00 51 1010.4
20260905202331 96 175 1.0 6.0 0.00 0.00 0.00 53 1010.7
20260905201827 96 135 4.0 4.0 0.00 0.00 0.00 52 1010.5
20260905201323 96 181 2.0 6.0 0.00 0.00 0.00 52 1010.6
20260905200822 98 157 2.0 4.0 0.00 0.00 0.00 50 1010.7
20260905200318 97 185 0.0 2.0 0.00 0.00 0.00 51 1010.7
20260905195816 95 148 1.0 2.0 0.00 0.00 0.00 54 1011.0
20260905195311 94 115 3.0 4.0 0.00 0.00 0.00 56 1011.1
20260905194807 92 114 1.0 2.0 0.00 0.00 0.00 59 1011.1
20260905194307 92 150 3.0 3.0 0.00 0.00 0.00 59 1011.2
20260905193806 92 129 4.0 6.0 0.00 0.00 0.00 59 1011.2
20260905193301 91 122 2.0 4.0 0.00 0.00 0.00 60 1011.3
20260905192756 92 142 3.0 6.0 0.00 0.00 0.00 60 1011.4
20260905192252 91 161 2.0 7.0 0.00 0.00 0.00 60 1011.4
20260905191751 91 137 4.0 4.0 0.00 0.00 0.00 60 1011.4
20260905191250 92 151 3.0 4.0 0.00 0.00 0.00 59 1011.8
20260905190749 92 102 3.0 7.0 0.00 0.00 0.00 59 1011.6
20260905190248 93 128 3.0 6.0 0.00 0.00 0.00 58 1011.7
20260905185747 92 107 2.0 4.0 0.00 0.00 0.00 59 1011.8
20260905185242 91 199 3.0 6.0 0.00 0.00 0.00 60 1011.8
20260905184736 91 162 2.0 3.0 0.00 0.00 0.00 61 1011.7
20260905184236 91 113 4.0 6.0 0.00 0.00 0.00 60 1011.8
20260905183735 90 201 4.0 6.0 0.00 0.00 0.00 61 1012.0
20260905183231 89 115 6.0 7.0 0.00 0.00 0.00 61 1011.8
20260905182730 90 163 4.0 8.0 0.00 0.00 0.00 62 1012.0
20260905182230 90 125 4.0 6.0 0.00 0.00 0.00 63 1012.1
20260905181725 90 188 2.0 6.0 0.00 0.00 0.00 64 1012.1
20260905181224 90 137 4.0 7.0 0.00 0.00 0.00 64 1012.2
20260905180719 94 132 7.0 8.0 0.00 0.00 0.00 58 1012.4
20260905180215 98 207 3.0 4.0 0.00 0.00 0.00 49 1012.3
20260905175714 97 188 3.0 4.0 0.00 0.00 0.00 48 1012.3
20260905175209 95 119 2.0 4.0 0.00 0.00 0.00 52 1012.2
20260905174704 96 32 5.0 6.0 0.00 0.00 0.00 52 1012.6
20260905174200 94 174 0.0 3.0 0.00 0.00 0.00 54 1012.8
20260905173656 92 190 0.0 2.0 0.00 0.00 0.00 57 1012.7
20260905173152 93 166 1.0 2.0 0.00 0.00 0.00 56 1012.7
20260905172651 95 241 2.0 4.0 0.00 0.00 0.00 55 1013.0
20260905172145 95 206 4.0 6.0 0.00 0.00 0.00 54 1012.9
20260905171641 96 165 3.0 3.0 0.00 0.00 0.00 53 1012.9
20260905171137 94 214 2.0 3.0 0.00 0.00 0.00 54 1012.9
20260905170634 95 308 4.0 7.0 0.00 0.00 0.00 54 1013.1
20260905170129 95 141 1.0 2.0 0.00 0.00 0.00 52 1012.9
20260905165629 92 161 0.0 0.0 0.00 0.00 0.00 56 1012.9
20260905165124 91 229 3.0 7.0 0.00 0.00 0.00 58 1013.1
20260905164619 91 176 2.0 3.0 0.00 0.00 0.00 59 1013.1
20260905164118 92 342 2.0 8.0 0.00 0.00 0.00 58 1013.2
20260905163615 94 111 3.0 6.0 0.00 0.00 0.00 56 1013.1
20260905163111 95 155 0.0 0.0 0.00 0.00 0.00 51 1013.2
20260905162607 95 183 2.0 3.0 0.00 0.00 0.00 49 1013.2
20260905162106 95 188 2.0 2.0 0.00 0.00 0.00 51 1013.4
20260905161606 93 185 2.0 3.0 0.00 0.00 0.00 53 1013.2
20260905161104 91 168 2.0 3.0 0.00 0.00 0.00 57 1013.1
20260905160603 89 243 2.0 3.0 0.00 0.00 0.00 60 1013.1
20260905155557 89 337 2.0 3.0 0.00 0.00 0.00 62 1013.2
20260905155056 89 126 2.0 3.0 0.00 0.00 0.00 62 1012.9
20260905154551 89 236 2.0 4.0 0.00 0.00 0.00 61 1013.0
20260905154046 89 114 1.0 3.0 0.00 0.00 0.00 63 1013.3
20260905153542 90 263 4.0 4.0 0.00 0.00 0.00 63 1013.3
20260905153042 91 167 1.0 3.0 0.00 0.00 0.00 63 1013.3
20260905152537 92 206 2.0 3.0 0.00 0.00 0.00 64 1013.2
20260905152032 93 171 2.0 3.0 0.00 0.00 0.00 64 1013.2
20260905151527 92 135 2.0 2.0 0.00 0.00 0.00 65 1013.4
20260905151022 91 183 2.0 3.0 0.00 0.00 0.00 65 1013.1
20260905150518 90 182 2.0 2.0 0.00 0.00 0.00 68 1013.3
20260905150015 90 154 1.0 2.0 0.00 0.00 0.00 69 1013.3
20260905145509 89 196 3.0 3.0 0.00 0.00 0.00 70 1013.2
20260905145008 89 148 0.0 1.0 0.00 0.00 0.00 71 1013.3
20260905144504 89 266 2.0 3.0 0.00 0.00 0.00 72 1013.4
20260905144003 89 276 4.0 6.0 0.00 0.00 0.00 71 1013.1
20260905143501 89 186 2.0 3.0 0.00 0.00 0.00 73 1013.3
20260905142956 88 217 2.0 3.0 0.00 0.00 0.00 75 1013.2
20260905142455 88 192 2.0 3.0 0.00 0.00 0.00 75 1013.1
20260905141951 88 257 2.0 3.0 0.00 0.00 0.00 75 1013.2
20260905141445 89 160 0.0 2.0 0.00 0.00 0.00 74 1013.2
20260905140942 88 180 1.0 1.0 0.00 0.00 0.00 76 1013.2
20260905140437 87 132 0.0 1.0 0.00 0.00 0.00 79 1013.1
20260905135935 86 180 1.0 2.0 0.00 0.00 0.00 80 1013.1
20260905135431 85 177 1.0 1.0 0.00 0.00 0.00 81 1013.2
20260905134927 85 103 2.0 2.0 0.00 0.00 0.00 81 1013.1
20260905134426 85 189 2.0 2.0 0.00 0.00 0.00 82 1012.8
20260905133920 84 132 0.0 1.0 0.00 0.00 0.00 83 1012.9
20260905133420 84 206 1.0 2.0 0.00 0.00 0.00 83 1013.0
20260905132920 84 85 1.0 2.0 0.00 0.00 0.00 84 1012.9
20260905132415 83 78 3.0 4.0 0.00 0.00 0.00 84 1012.9
20260905131910 83 56 1.0 2.0 0.00 0.00 0.00 85 1013.1
20260905131406 83 67 3.0 3.0 0.00 0.00 0.00 85 1013.0
20260905130900 83 94 2.0 3.0 0.00 0.00 0.00 86 1013.0
20260905130359 82 83 1.0 2.0 0.00 0.00 0.00 86 1013.0
20260905125855 82 93 2.0 2.0 0.00 0.00 0.00 87 1012.8
20260905125349 82 110 1.0 2.0 0.00 0.00 0.00 88 1012.8
20260905124845 82 72 2.0 3.0 0.00 0.00 0.00 88 1012.9
20260905124342 81 65 2.0 2.0 0.00 0.00 0.00 89 1012.7
20260905123841 80 178 2.0 2.0 0.00 0.00 0.00 89 1012.4
20260905123339 80 95 2.0 2.0 0.00 0.00 0.00 90 1012.7
20260905122838 80 114 2.0 2.0 0.00 0.00 0.00 90 1012.4
20260905122337 80 77 2.0 2.0 0.00 0.00 0.00 90 1012.4
20260905121833 80 353 2.0 3.0 0.00 0.00 0.00 89 1012.4
20260905121330 80 102 1.0 2.0 0.00 0.00 0.00 89 1012.4
20260905120828 80 221 2.0 2.0 0.00 0.00 0.00 89 1012.4
20260905120323 80 105 2.0 2.0 0.00 0.00 0.00 89 1012.2
20260905115818 81 196 0.0 0.0 0.00 0.00 0.00 88 1012.1
20260905115317 81 87 2.0 2.0 0.00 0.00 0.00 89 1012.1
20260905114817 80 122 2.0 2.0 0.00 0.00 0.00 89 1011.9
20260905114316 81 118 0.0 1.0 0.00 0.00 0.00 88 1012.0